Weather in Tuzly

Ukraine / Odesa District     45°51′55″N   30°05′32″E
temp.,
°C
wind,
m/s
gust,
m/s
humid.,
%
clouds,
%
prec.,
mm/h
press.,
hPa
HPBL,
m
7 march, sun
sun723:00+2nne57520 0.0 1030656
02:00+1wnw22490 0.0 1030184
05:00+1w56550 0.0 1029396
08:00+1w46600 0.0 1028363
11:00+2wsw67510 0.0 10271168
14:00+4sw68520 0.0 10241084
17:00+5sw57590 0.0 1022199
20:00+4ssw1011670 0.0 1020458
8 march, mon
mon823:00+4sw10126914 0.0 1019495
02:00+4sw9116816 0.0 1017457
05:00+3sw810710 0.0 1016501
08:00+3wsw67740 0.0 1015376
11:00+4wsw22660 0.0 1015191
14:00+4s33640 0.0 1015121
17:00+5s446298 0.0 101470
20:00+5s236699 0.0 101524
9 march, tue
tue923:00+5n4562100 0.0 101782
02:00+3nne696695 0.1 1019768
05:00+2n6763100 0.0 1020608
08:00+1n566067 0.0 1021507
11:00+2nne24420 0.0 1022980
14:00+3se44510 0.0 1022353
17:00+3sse45560 0.0 1022259
20:00+3sse44580 0.0 1023310
10 march, wed
wed1023:00+3s345767 0.0 1023398
02:00+4e445783 0.0 1023614
05:00+3e6659100 0.0 1022802
08:00+3e7765100 0.0 1022935
11:00+3e8870100 0.0 1021966
14:00+3e8873100 0.0 1020872
17:00+2ene8967100 0.0 1020789
20:00+3ene8963100 0.0 10201016
11 march, thu
thu1123:00+2ene8961100 0.0 10221036
02:00+1ne886286 0.0 1023843
05:00+1ne78640 0.0 1023747
08:000nne67630 0.0 1025649
11:00+1ne55510 0.0 1026974
14:00+1e55550 0.0 1025527
17:00+1ese54520 0.0 1025497
20:00+2se665020 0.0 1026429